Weather History for Chippewa, MI

Change the Weather History Date:

Friday, March 15, 2013

  Actual Average Record
Temperature  
Mean Temperature 24 °F -  
Max Temperature 30 °F 33 °F 57 °F (2012)
Min Temperature 17 °F 10 °F -12 °F (1992)
Degree Days  
Heating Degree Days 42    
Moisture  
Dew Point 19 °F    
Average Humidity 79    
Maximum Humidity 100    
Minimum Humidity 59    
Precipitation  
Precipitation 0.00 in - - ()
Sea Level Pressure  
Sea Level Pressure 29.86 in    
Wind  
Wind Speed 13 mph (WNW)    
Max Wind Speed 24 mph    
Max Gust Speed 32 mph    
Visibility 9 miles    
Events      
Averages and records for this station are not official NWS values.
T = Trace of Precipitation, MM = Missing Value Source: NWS Daily Summary

Daily Weather History Graph

Daily Weather History Graph

Search for Another Location

Airport:

Trip Planner

Search our weather history database for the weather conditions in past years. The results will help you decide how hot, cold, wet, or windy it might be!

Date:

Astronomy

Mar. 15, 2013 Rise Set
Actual Time 7:50 AM EDT 7:44 PM EDT
Civil Twilight 7:20 AM EDT 8:13 PM EDT
Nautical Twilight 6:45 AM EDT 8:49 PM EDT
Astronomical Twilight 6:09 AM EDT 9:24 PM EDT
Moon 9:25 AM EDT (3/15) No Moon Set
Length of Visible Light 12h 53m
Length of Day
11h 53m
Waxing Crescent, 15% of the Moon is Illuminated
Mar 15
Waxing Crescent
Mar 19
First Quarter
Mar 27
Full
Apr 3
Last Quarter
Apr 10
New

Hourly Weather History & Observations

Time (EDT) Temp. Windchill Dew Point Humidity Pressure Visibility Wind Dir Wind Speed Gust Speed Precip Events Conditions
12:15 AM 28.4 °F 20.4 °F 26.6 °F 93% 29.89 in 4.0 mi SW 8.1 mph - N/A   Overcast
12:35 AM 28.4 °F 19.7 °F 26.6 °F 93% 29.87 in 3.0 mi SW 9.2 mph - N/A   Overcast
12:55 AM 28.4 °F 21.2 °F 26.6 °F 93% 29.86 in 2.5 mi SW 6.9 mph - N/A   Overcast
1:15 AM 28.4 °F 21.2 °F 28.4 °F 100% 29.84 in 3.0 mi SW 6.9 mph - N/A   Overcast
1:35 AM 28.4 °F 19.7 °F 28.4 °F 100% 29.84 in 3.0 mi SW 9.2 mph - N/A   Overcast
1:55 AM 28.4 °F 19.7 °F 26.6 °F 93% 29.83 in 5.0 mi WSW 9.2 mph - N/A   Overcast
2:15 AM 28.4 °F 19.1 °F 26.6 °F 93% 29.81 in 6.0 mi WSW 10.4 mph 16.1 mph N/A   Overcast
2:35 AM 28.4 °F 19.1 °F 26.6 °F 93% 29.81 in 5.0 mi WSW 10.4 mph 17.3 mph N/A   Overcast
2:55 AM 30.2 °F 20.8 °F 28.4 °F 93% 29.80 in 9.0 mi WSW 11.5 mph 17.3 mph N/A   Overcast
3:15 AM 30.2 °F 20.8 °F 28.4 °F 93% 29.79 in 10.0 mi WSW 11.5 mph - N/A   Overcast
3:35 AM 30.2 °F 21.3 °F 28.4 °F 93% 29.78 in 7.0 mi WSW 10.4 mph - N/A   Overcast
3:55 AM 30.2 °F 21.3 °F 28.4 °F 93% 29.78 in 8.0 mi WSW 10.4 mph - N/A   Overcast
4:15 AM 30.2 °F 20.8 °F 28.4 °F 93% 29.77 in 10.0 mi WSW 11.5 mph 16.1 mph N/A   Overcast
4:35 AM 30.2 °F 20.2 °F 28.4 °F 93% 29.77 in 6.0 mi West 12.7 mph 18.4 mph N/A   Overcast
4:55 AM 30.2 °F 19.3 °F 28.4 °F 93% 29.77 in 4.0 mi West 15.0 mph 24.2 mph N/A   Overcast
5:15 AM 28.4 °F 15.1 °F 28.4 °F 100% 29.76 in 8.0 mi WNW 20.7 mph 28.8 mph N/A   Overcast
5:55 AM 28.4 °F 15.1 °F 24.8 °F 86% 29.77 in 10.0 mi WNW 20.7 mph 32.2 mph N/A   Overcast
6:15 AM 26.6 °F 12.0 °F 21.2 °F 80% 29.77 in 9.0 mi WNW 23.0 mph 29.9 mph N/A   Overcast
6:35 AM 26.6 °F 11.7 °F 21.2 °F 80% 29.78 in 8.0 mi WNW 24.2 mph 31.1 mph N/A   Mostly Cloudy
6:55 AM 24.8 °F 10.0 °F 19.4 °F 80% 29.79 in 10.0 mi NW 21.9 mph 26.5 mph N/A   Overcast
7:15 AM 24.8 °F 10.0 °F 19.4 °F 80% 29.79 in 9.0 mi WNW 21.9 mph 27.6 mph N/A   Mostly Cloudy
7:35 AM 24.8 °F 11.1 °F 19.4 °F 80% 29.80 in 9.0 mi NW 18.4 mph 28.8 mph N/A   Overcast
7:55 AM 24.8 °F 11.5 °F 19.4 °F 80% 29.81 in 10.0 mi NW 17.3 mph 27.6 mph N/A   Overcast
8:15 AM 24.8 °F 12.4 °F 19.4 °F 80% 29.82 in 10.0 mi NW 15.0 mph 20.7 mph N/A   Overcast
8:35 AM 24.8 °F 12.9 °F 19.4 °F 80% 29.83 in 10.0 mi NW 13.8 mph 18.4 mph N/A   Overcast
8:55 AM 24.8 °F 12.9 °F 19.4 °F 80% 29.84 in 9.0 mi NW 13.8 mph 25.3 mph N/A   Overcast
9:15 AM 24.8 °F 12.4 °F 19.4 °F 80% 29.84 in 9.0 mi NW 15.0 mph 21.9 mph N/A   Overcast
9:35 AM 24.8 °F 11.5 °F 19.4 °F 80% 29.84 in 10.0 mi NW 17.3 mph 21.9 mph N/A   Overcast
9:55 AM 24.8 °F 12.4 °F 19.4 °F 80% 29.85 in 7.0 mi NNW 15.0 mph 20.7 mph N/A   Overcast
10:15 AM 24.8 °F 12.9 °F 19.4 °F 80% 29.86 in 9.0 mi NW 13.8 mph 20.7 mph N/A   Overcast
10:35 AM 24.8 °F 11.1 °F 19.4 °F 80% 29.85 in 9.0 mi NW 18.4 mph - N/A   Overcast
10:55 AM 24.8 °F 11.9 °F 19.4 °F 80% 29.86 in 10.0 mi NNW 16.1 mph 23.0 mph N/A   Overcast
11:15 AM 26.6 °F 13.8 °F 19.4 °F 74% 29.86 in 10.0 mi NNW 17.3 mph - N/A   Overcast
11:35 AM 26.6 °F 15.7 °F 19.4 °F 74% 29.86 in 10.0 mi NW 12.7 mph 24.2 mph N/A   Overcast
11:55 AM 26.6 °F 13.8 °F 17.6 °F 69% 29.85 in 10.0 mi NNW 17.3 mph 28.8 mph N/A   Overcast
12:15 PM 26.6 °F 13.8 °F 19.4 °F 74% 29.85 in 10.0 mi NNW 17.3 mph 24.2 mph N/A   Overcast
12:35 PM 26.6 °F 15.7 °F 19.4 °F 74% 29.86 in 10.0 mi NNW 12.7 mph 19.6 mph N/A   Overcast
12:55 PM 26.6 °F 14.3 °F 19.4 °F 74% 29.86 in 10.0 mi NNW 16.1 mph 19.6 mph N/A   Overcast
1:15 PM 26.6 °F 13.8 °F 19.4 °F 74% 29.86 in 10.0 mi NW 17.3 mph - N/A   Overcast
1:35 PM 26.6 °F 16.2 °F 19.4 °F 74% 29.87 in 10.0 mi NNW 11.5 mph 21.9 mph N/A   Overcast
1:55 PM 26.6 °F 15.2 °F 19.4 °F 74% 29.87 in 9.0 mi NW 13.8 mph 28.8 mph N/A   Overcast
2:15 PM 26.6 °F 14.3 °F 19.4 °F 74% 29.86 in 10.0 mi NW 16.1 mph - N/A   Overcast
2:35 PM 26.6 °F 13.8 °F 19.4 °F 74% 29.86 in 10.0 mi NW 17.3 mph 25.3 mph N/A   Overcast
2:55 PM 26.6 °F 12.4 °F 17.6 °F 69% 29.86 in 10.0 mi WNW 21.9 mph 26.5 mph N/A   Overcast
3:15 PM 26.6 °F 14.7 °F 17.6 °F 69% 29.87 in 10.0 mi NW 15.0 mph 24.2 mph N/A   Overcast
3:35 PM 26.6 °F 13.1 °F 17.6 °F 69% 29.86 in 9.0 mi NW 19.6 mph 25.3 mph N/A   Overcast
3:55 PM 24.8 °F 10.3 °F 17.6 °F 74% 29.87 in 10.0 mi NW 20.7 mph 25.3 mph N/A   Mostly Cloudy
4:15 PM 24.8 °F 10.7 °F 15.8 °F 69% 29.88 in 10.0 mi WNW 19.6 mph 25.3 mph N/A   Mostly Cloudy
4:35 PM 24.8 °F 11.9 °F 12.2 °F 59% 29.89 in 10.0 mi NW 16.1 mph 24.2 mph N/A   Scattered Clouds
4:55 PM 24.8 °F 12.9 °F 14.0 °F 64% 29.89 in 10.0 mi NW 13.8 mph - N/A   Partly Cloudy
5:15 PM 23.0 °F 9.2 °F 14.0 °F 68% 29.89 in 10.0 mi NW 17.3 mph 23.0 mph N/A   Mostly Cloudy
5:35 PM 23.0 °F 9.2 °F 14.0 °F 68% 29.89 in 10.0 mi NW 17.3 mph 23.0 mph N/A   Mostly Cloudy
5:55 PM 21.2 °F 7.8 °F 12.2 °F 68% 29.90 in 10.0 mi NW 15.0 mph - N/A   Mostly Cloudy
6:15 PM 21.2 °F 6.8 °F 12.2 °F 68% 29.89 in 10.0 mi WNW 17.3 mph 21.9 mph N/A   Scattered Clouds
6:35 PM 21.2 °F 8.3 °F 12.2 °F 68% 29.90 in 10.0 mi NW 13.8 mph 19.6 mph N/A   Partly Cloudy
6:55 PM 19.4 °F 6.6 °F 12.2 °F 74% 29.90 in 10.0 mi NW 12.7 mph - N/A   Clear
7:15 PM 19.4 °F 6.6 °F 12.2 °F 74% 29.90 in 10.0 mi NW 12.7 mph - N/A   Clear
7:35 PM 19.4 °F 7.2 °F 12.2 °F 74% 29.91 in 10.0 mi NW 11.5 mph - N/A   Clear
7:55 PM 19.4 °F 6.0 °F 12.2 °F 74% 29.92 in 10.0 mi NW 13.8 mph - N/A   Clear
8:15 PM 19.4 °F 7.9 °F 12.2 °F 74% 29.93 in 10.0 mi NW 10.4 mph - N/A   Clear
8:55 PM 19.4 °F 9.5 °F 12.2 °F 74% 29.93 in 10.0 mi NW 8.1 mph - N/A   Partly Cloudy
9:15 PM 19.4 °F 8.6 °F 12.2 °F 74% 29.93 in 10.0 mi NW 9.2 mph - N/A   Scattered Clouds
9:35 PM 19.4 °F 10.4 °F 12.2 °F 74% 29.93 in 10.0 mi NW 6.9 mph - N/A   Scattered Clouds
9:55 PM 19.4 °F 10.4 °F 12.2 °F 74% 29.94 in 10.0 mi NW 6.9 mph - N/A   Mostly Cloudy
10:15 PM 19.4 °F 9.5 °F 12.2 °F 74% 29.93 in 10.0 mi NW 8.1 mph - N/A   Overcast
10:35 PM 19.4 °F 9.5 °F 12.2 °F 74% 29.93 in 10.0 mi NW 8.1 mph - N/A   Mostly Cloudy
10:55 PM 19.4 °F 12.8 °F 12.2 °F 74% 29.93 in 10.0 mi NNW 4.6 mph - N/A   Mostly Cloudy
11:15 PM 17.6 °F 12.3 °F 12.2 °F 79% 29.94 in 10.0 mi NNW 3.5 mph - N/A   Overcast
11:35 PM 19.4 °F 14.3 °F 12.2 °F 74% 29.93 in 10.0 mi North 3.5 mph - N/A   Overcast
11:55 PM 19.4 °F 11.5 °F 12.2 °F 74% 29.93 in 10.0 mi NNE 5.8 mph - N/A   Overcast